Overview Statistics Trail Chart Weather Telemetry Raw packets
 

This is the latest recevied weather packets stored in our database for station/object N5ATR. If no packets are shown the sender has not sent any weather packets the latest 10 day(s).

<< 79 80 81 82 83 84 85 >>
Time Temp. Humidity Pressure Rain* Wind** Luminosity Snow
1788117497 28.89° C 31% 1023.8 hPa 0 mm - 772 W/m² -
1788117196 29.44° C 31% 1023.9 hPa 0 mm - 409 W/m² -
1788116893 28.89° C 31% 1023.9 hPa 0 mm - 597 W/m² -
1788116592 28.89° C 31% 1023.5 hPa 0 mm - 728 W/m² -
1788116291 27.78° C 33% 1024 hPa 0 mm - 667 W/m² -
1788115986 28.89° C 32% 1023.9 hPa 0 mm - 532 W/m² -
1788115681 28.33° C 34% 1024 hPa 0 mm - 410 W/m² -
1788115380 27.78° C 35% 1024.1 hPa 0 mm - 413 W/m² -
1788115076 27.78° C 36% 1024 hPa 0 mm - 419 W/m² -
1788114775 27.78° C 35% 1023.9 hPa 0 mm - 434 W/m² -
1788114471 27.78° C 35% 1024 hPa 0 mm - 434 W/m² -
1788114167 27.22° C 35% 1024 hPa 0 mm - 586 W/m² -
1788113864 27.78° C 35% 1023.9 hPa 0 mm - 390 W/m² -
1788113558 28.33° C 34% 1023.8 hPa 0 mm - 314 W/m² -
1788113257 28.89° C 34% 1024.1 hPa 0 mm - 664 W/m² -
1788112952 27.78° C 36% 1024.1 hPa 0 mm - 704 W/m² -
1788112652 27.78° C 35% 1024.4 hPa 0 mm - 711 W/m² -
1788112347 27.78° C 36% 1024.1 hPa 0 mm - 696 W/m² -
1788112041 27.22° C 36% 1024.1 hPa 0 mm - 682 W/m² -
1788111737 27.78° C 35% 1024 hPa 0 mm - 671 W/m² -
1788111437 27.22° C 35% 1024 hPa 0 mm - 665 W/m² -
1788111132 27.22° C 34% 1024.2 hPa 0 mm - 659 W/m² -
1788110829 26.67° C 34% 1024.5 hPa 0 mm - 646 W/m² -
1788110525 26.67° C 36% 1024.6 hPa 0 mm - 648 W/m² -
1788110226 26.67° C 36% 1024.5 hPa 0 mm - 642 W/m² -

* Rain latest hour (hover to see other rain measurements)
** Current wind speed in m/s (hover to see current wind gust speed)